Portada
METAR-TAF:

METAR-TAF

Aeroports :

Rock Hill/York County Airport (Bryant Field)

Rock Hill, Carolina del Sud, Estats Units d'Amèrica

latitud: 34-59-02N, longitud: 081-03-21W, altitud: 204 m

Observació

L'informe es va fer fa 52 minuts, a les 07:54 UTC
Vent 5 kt del Nord-Est
Temperatura 7°C
Humitat 76%
Pressió 1012 hPa
Visibilitat: 16.1 km
Escasses núvols a una alçada de 3700 ft
Cel cobert a una alçada de 5500 ft

METAR: KUZA 180754Z AUTO 04005KT 10SM FEW037 OVC055 07/03 A2987 RMK AO2 SLP113 T00720033

Hora: 03:46 (08:46 UTC)


TAF: manca

Observacions i pronòstics meteorològics de més de 4000 aeroports (METAR i TAF).

Les estacions disponibles són els punts grocs i vermells al mapa.

Posi el ratolí al punt desitjat per veure el nom de l'estació.

Feu clic per veure les observacions i els pronòstics meteorològics.

Per canviar el mapa: feu clic els botons verds amb una creu de color negre per apropar; al botó verd amb un guió per allunyar la imatge; o en les fletxes verdes per a mapes adjacents.


METAR-TAF: